Time,TemperatureF,DewpointF,PressureIn,WindDirection,WindDirectionDegrees,WindSpeedMPH,WindSpeedGustMPH,Humidity,HourlyPrecipIn,Conditions,Clouds,dailyrainin,SoftwareType,DateUTC
2013-11-16 00:19:00,34.0,17.0,30.15,SE,135,1.0,1.0,51,0.00,,,0.00,TxWx,2013-11-16 05:19:00,
2013-11-16 00:24:00,35.0,17.0,30.16,NNE,22,1.0,1.0,50,0.00,,,0.00,TxWx,2013-11-16 05:24:00,
2013-11-16 00:29:00,35.0,18.0,30.16,ENE,67,1.0,1.0,51,0.00,,,0.00,TxWx,2013-11-16 05:29:00,
2013-11-16 00:34:00,34.0,17.0,30.15,WNW,292,1.0,1.0,51,0.00,,,0.00,TxWx,2013-11-16 05:34:00,
2013-11-16 00:39:00,35.0,17.0,30.15,WNW,292,2.0,2.0,51,0.00,,,0.00,TxWx,2013-11-16 05:39:00,
2013-11-16 00:44:00,35.0,17.0,30.15,West,270,1.0,1.0,50,0.00,,,0.00,TxWx,2013-11-16 05:44:00,
2013-11-16 00:50:00,35.0,17.0,30.15,West,270,0.0,0.0,50,0.00,,,0.00,TxWx,2013-11-16 05:50:00,
2013-11-16 00:55:00,35.0,17.0,30.15,ESE,112,1.0,1.0,50,0.00,,,0.00,TxWx,2013-11-16 05:55:00,
2013-11-16 01:00:00,35.0,18.0,30.15,SSW,202,2.0,3.0,51,0.00,,,0.00,TxWx,2013-11-16 06:00:00,
2013-11-16 01:05:00,35.0,18.0,30.15,WNW,292,1.0,1.0,51,0.00,,,0.00,TxWx,2013-11-16 06:05:00,
2013-11-16 01:10:00,35.0,18.0,30.15,WNW,292,2.0,2.0,52,0.00,,,0.00,TxWx,2013-11-16 06:10:00,
2013-11-16 01:15:00,35.0,18.0,30.16,NE,45,2.0,3.0,51,0.00,,,0.00,TxWx,2013-11-16 06:15:00,
2013-11-16 01:20:00,35.0,18.0,30.16,ESE,112,1.0,1.0,51,0.00,,,0.00,TxWx,2013-11-16 06:20:00,
2013-11-16 01:25:00,35.0,17.0,30.17,NW,315,0.0,1.0,51,0.00,,,0.00,TxWx,2013-11-16 06:25:00,
2013-11-16 01:30:00,36.0,18.0,30.16,WNW,292,2.0,2.0,50,0.00,,,0.00,TxWx,2013-11-16 06:30:00,
2013-11-16 01:36:00,37.0,18.0,30.17,NW,315,1.0,2.0,49,0.00,,,0.00,TxWx,2013-11-16 06:36:00,
2013-11-16 01:41:00,38.0,19.0,30.17,NNE,22,3.0,3.0,48,0.00,,,0.00,TxWx,2013-11-16 06:41:00,
2013-11-16 01:46:00,38.0,18.0,30.17,NNE,22,3.0,4.0,46,0.00,,,0.00,TxWx,2013-11-16 06:46:00,
2013-11-16 01:51:00,38.0,18.0,30.18,North,0,5.0,5.0,45,0.00,,,0.00,TxWx,2013-11-16 06:51:00,
2013-11-16 01:56:00,39.0,18.0,30.18,North,0,3.0,5.0,45,0.00,,,0.00,TxWx,2013-11-16 06:56:00,
2013-11-16 02:01:00,39.0,18.0,30.18,NNE,22,2.0,3.0,44,0.00,,,0.00,TxWx,2013-11-16 07:01:00,
2013-11-16 02:06:00,39.0,18.0,30.18,NW,315,2.0,2.0,44,0.00,,,0.00,TxWx,2013-11-16 07:06:00,
2013-11-16 02:12:00,39.0,17.0,30.18,WNW,292,1.0,2.0,43,0.00,,,0.00,TxWx,2013-11-16 07:12:00,
2013-11-16 02:17:00,39.0,17.0,30.18,NW,315,1.0,1.0,43,0.00,,,0.00,TxWx,2013-11-16 07:17:00,
2013-11-16 02:22:00,39.0,17.0,30.18,NW,315,2.0,3.0,43,0.00,,,0.00,TxWx,2013-11-16 07:22:00,
2013-11-16 02:27:00,39.0,17.0,30.18,NNW,337,1.0,2.0,43,0.00,,,0.00,TxWx,2013-11-16 07:27:00,
2013-11-16 02:32:00,39.0,17.0,30.18,WNW,292,1.0,2.0,43,0.00,,,0.00,TxWx,2013-11-16 07:32:00,
2013-11-16 02:37:00,39.0,17.0,30.18,North,0,1.0,1.0,43,0.00,,,0.00,TxWx,2013-11-16 07:37:00,
2013-11-16 02:42:00,39.0,17.0,30.18,North,0,3.0,3.0,43,0.00,,,0.00,TxWx,2013-11-16 07:42:00,
2013-11-16 02:47:00,39.0,17.0,30.18,NW,315,2.0,2.0,43,0.00,,,0.00,TxWx,2013-11-16 07:47:00,
2013-11-16 02:53:00,39.0,17.0,30.18,NNE,22,2.0,3.0,43,0.00,,,0.00,TxWx,2013-11-16 07:53:00,
2013-11-16 02:58:00,39.0,17.0,30.18,North,0,1.0,2.0,43,0.00,,,0.00,TxWx,2013-11-16 07:58:00,
2013-11-16 03:01:00,51.0,33.0,30.24,NNE,22,5.0,6.0,50,0.00,,,0.00,TxWx,2013-11-16 08:01:00,
2013-11-16 03:02:00,51.0,33.0,30.24,West,270,5.0,5.0,50,0.00,,,0.00,TxWx,2013-11-16 08:02:00,
2013-11-16 03:03:00,39.0,17.0,30.18,North,0,2.0,3.0,43,0.00,,,0.00,TxWx,2013-11-16 08:03:00,
2013-11-16 03:05:00,51.0,33.0,30.23,NNW,337,3.0,5.0,50,0.00,,,0.00,TxWx,2013-11-16 08:05:00,
2013-11-16 03:08:00,39.0,17.0,30.18,North,0,2.0,3.0,43,0.00,,,0.00,TxWx,2013-11-16 08:08:00,
2013-11-16 03:10:00,52.0,34.0,30.23,NE,45,3.0,4.0,50,0.00,,,0.00,TxWx,2013-11-16 08:10:00,
2013-11-16 03:11:00,52.0,34.0,30.23,NNE,22,4.0,5.0,50,0.00,,,0.00,TxWx,2013-11-16 08:11:00,
2013-11-16 03:13:00,39.0,17.0,30.19,NNW,337,1.0,2.0,43,0.00,,,0.00,TxWx,2013-11-16 08:13:00,
2013-11-16 03:14:00,52.0,34.0,30.23,NW,315,3.0,4.0,50,0.00,,,0.00,TxWx,2013-11-16 08:14:00,
2013-11-16 03:15:00,52.0,34.0,30.23,SW,225,2.0,3.0,50,0.00,,,0.00,TxWx,2013-11-16 08:15:00,
2013-11-16 03:16:00,52.0,34.0,30.23,SW,225,3.0,3.0,50,0.00,,,0.00,TxWx,2013-11-16 08:16:00,
2013-11-16 03:18:00,39.0,18.0,30.19,East,90,1.0,1.0,44,0.00,,,0.00,TxWx,2013-11-16 08:18:00,
2013-11-16 03:20:00,52.0,33.0,30.23,WNW,292,2.0,2.0,49,0.00,,,0.00,TxWx,2013-11-16 08:20:00,
2013-11-16 03:22:00,53.0,34.0,30.23,NW,315,4.0,5.0,49,0.00,,,0.00,TxWx,2013-11-16 08:22:00,
2013-11-16 03:23:00,39.0,17.0,30.19,North,0,2.0,2.0,43,0.00,,,0.00,TxWx,2013-11-16 08:23:00,
2013-11-16 03:24:00,53.0,34.0,30.23,NNW,337,3.0,3.0,49,0.00,,,0.00,TxWx,2013-11-16 08:24:00,
2013-11-16 03:25:00,53.0,34.0,30.23,NNE,22,3.0,4.0,49,0.00,,,0.00,TxWx,2013-11-16 08:25:00,
2013-11-16 03:27:00,53.0,34.0,30.23,NNW,337,3.0,4.0,49,0.00,,,0.00,TxWx,2013-11-16 08:27:00,
2013-11-16 03:28:00,39.0,18.0,30.20,ENE,67,2.0,2.0,44,0.00,,,0.00,TxWx,2013-11-16 08:28:00,
2013-11-16 03:30:00,53.0,34.0,30.23,WSW,247,2.0,3.0,49,0.00,,,0.00,TxWx,2013-11-16 08:30:00,
2013-11-16 03:32:00,53.0,34.0,30.23,SSE,157,2.0,3.0,48,0.00,,,0.00,TxWx,2013-11-16 08:32:00,
2013-11-16 03:33:00,39.0,18.0,30.20,South,180,3.0,3.0,45,0.00,,,0.00,TxWx,2013-11-16 08:33:00,
2013-11-16 03:38:00,38.0,20.0,30.20,South,180,2.0,3.0,50,0.00,,,0.00,TxWx,2013-11-16 08:38:00,
2013-11-16 03:43:00,37.0,19.0,30.20,NNW,337,1.0,1.0,50,0.00,,,0.00,TxWx,2013-11-16 08:43:00,
2013-11-16 03:49:00,37.0,19.0,30.20,ESE,112,1.0,1.0,50,0.00,,,0.00,TxWx,2013-11-16 08:49:00,
2013-11-16 03:54:00,37.0,19.0,30.20,South,180,1.0,1.0,51,0.00,,,0.00,TxWx,2013-11-16 08:54:00,
2013-11-16 03:59:00,37.0,20.0,30.20,NW,315,1.0,1.0,51,0.00,,,0.00,TxWx,2013-11-16 08:59:00,
2013-11-16 04:04:00,37.0,19.0,30.20,NNW,337,3.0,3.0,51,0.00,,,0.00,TxWx,2013-11-16 09:04:00,
2013-11-16 04:09:00,37.0,19.0,30.20,North,0,3.0,5.0,50,0.00,,,0.00,TxWx,2013-11-16 09:09:00,
2013-11-16 04:12:00,54.0,33.0,30.22,NNE,22,5.0,5.0,44,0.00,,,0.00,TxWx,2013-11-16 09:12:00,
2013-11-16 04:14:00,38.0,20.0,30.21,NNE,22,4.0,5.0,49,0.00,,,0.00,TxWx,2013-11-16 09:14:00,
2013-11-16 04:15:00,54.0,33.0,30.22,North,0,5.0,6.0,44,0.00,,,0.00,TxWx,2013-11-16 09:15:00,
2013-11-16 04:19:00,38.0,20.0,30.21,NNE,22,2.0,2.0,49,0.00,,,0.00,TxWx,2013-11-16 09:19:00,
2013-11-16 04:20:00,53.0,31.0,30.22,ENE,67,5.0,5.0,44,0.00,,,0.00,TxWx,2013-11-16 09:20:00,
2013-11-16 04:23:00,53.0,30.0,30.22,NNE,22,6.0,6.0,44,0.00,,,0.00,TxWx,2013-11-16 09:23:00,
2013-11-16 04:24:00,53.0,31.0,30.22,NNW,337,3.0,5.0,44,0.00,,,0.00,TxWx,2013-11-16 09:24:00,
2013-11-16 04:25:00,38.0,19.0,30.21,NNE,22,1.0,2.0,49,0.00,,,0.00,TxWx,2013-11-16 09:25:00,
2013-11-16 04:26:00,54.0,33.0,30.22,NNE,22,1.0,2.0,44,0.00,,,0.00,TxWx,2013-11-16 09:26:00,
2013-11-16 04:28:00,54.0,33.0,30.21,West,270,2.0,4.0,44,0.00,,,0.00,TxWx,2013-11-16 09:28:00,
2013-11-16 04:30:00,38.0,19.0,30.21,NNE,22,3.0,3.0,48,0.00,,,0.00,TxWx,2013-11-16 09:30:00,
2013-11-16 04:31:00,54.0,32.0,30.22,NNW,337,5.0,6.0,44,0.00,,,0.00,TxWx,2013-11-16 09:31:00,
2013-11-16 04:32:00,54.0,31.0,30.22,NNW,337,5.0,6.0,43,0.00,,,0.00,TxWx,2013-11-16 09:32:00,
2013-11-16 04:33:00,54.0,31.0,30.22,North,0,3.0,5.0,43,0.00,,,0.00,TxWx,2013-11-16 09:33:00,
2013-11-16 04:35:00,39.0,19.0,30.21,North,0,1.0,1.0,47,0.00,,,0.00,TxWx,2013-11-16 09:35:00,
2013-11-16 04:38:00,54.0,32.0,30.22,North,0,3.0,5.0,44,0.00,,,0.00,TxWx,2013-11-16 09:38:00,
2013-11-16 04:40:00,39.0,19.0,30.21,North,0,1.0,1.0,47,0.00,,,0.00,TxWx,2013-11-16 09:40:00,
2013-11-16 04:41:00,54.0,31.0,30.22,NW,315,3.0,5.0,43,0.00,,,0.00,TxWx,2013-11-16 09:41:00,
2013-11-16 04:42:00,54.0,31.0,30.22,NW,315,1.0,3.0,43,0.00,,,0.00,TxWx,2013-11-16 09:42:00,
2013-11-16 04:45:00,39.0,20.0,30.21,East,90,0.0,0.0,48,0.00,,,0.00,TxWx,2013-11-16 09:45:00,
2013-11-16 04:50:00,39.0,20.0,30.21,WNW,292,1.0,1.0,48,0.00,,,0.00,TxWx,2013-11-16 09:50:00,
2013-11-16 04:55:00,39.0,20.0,30.21,SE,135,0.0,1.0,49,0.00,,,0.00,TxWx,2013-11-16 09:55:00,
2013-11-16 05:01:00,39.0,21.0,30.21,North,0,1.0,1.0,50,0.00,,,0.00,TxWx,2013-11-16 10:01:00,
2013-11-16 05:03:00,55.0,31.0,30.21,East,90,2.0,2.0,42,0.00,,,0.00,TxWx,2013-11-16 10:03:00,
2013-11-16 05:05:00,55.0,31.0,30.21,NW,315,3.0,3.0,42,0.00,,,0.00,TxWx,2013-11-16 10:05:00,
2013-11-16 05:06:00,39.0,21.0,30.21,NNW,337,1.0,1.0,51,0.00,,,0.00,TxWx,2013-11-16 10:06:00,
2013-11-16 05:10:00,55.0,31.0,30.21,NW,315,3.0,3.0,41,0.00,,,0.00,TxWx,2013-11-16 10:10:00,
2013-11-16 05:11:00,39.0,22.0,30.21,NW,315,1.0,1.0,52,0.00,,,0.00,TxWx,2013-11-16 10:11:00,
2013-11-16 05:13:00,55.0,31.0,30.21,WNW,292,3.0,3.0,41,0.00,,,0.00,TxWx,2013-11-16 10:13:00,
2013-11-16 05:14:00,55.0,31.0,30.21,West,270,3.0,3.0,42,0.00,,,0.00,TxWx,2013-11-16 10:14:00,
2013-11-16 05:16:00,38.0,21.0,30.20,WSW,247,1.0,1.0,53,0.00,,,0.00,TxWx,2013-11-16 10:16:00,
2013-11-16 05:17:00,55.0,31.0,30.21,NW,315,5.0,6.0,42,0.00,,,0.00,TxWx,2013-11-16 10:17:00,
2013-11-16 05:18:00,55.0,31.0,30.21,North,0,1.0,2.0,42,0.00,,,0.00,TxWx,2013-11-16 10:18:00,
2013-11-16 05:19:00,55.0,31.0,30.21,NW,315,5.0,5.0,41,0.00,,,0.00,TxWx,2013-11-16 10:19:00,
2013-11-16 05:21:00,38.0,23.0,30.20,SSE,157,1.0,1.0,56,0.00,,,0.00,TxWx,2013-11-16 10:21:00,
2013-11-16 05:23:00,55.0,31.0,30.21,ENE,67,2.0,3.0,42,0.00,,,0.00,TxWx,2013-11-16 10:23:00,
2013-11-16 05:24:00,55.0,31.0,30.21,NNE,22,4.0,5.0,41,0.00,,,0.00,TxWx,2013-11-16 10:24:00,
2013-11-16 05:25:00,55.0,30.0,30.21,NNE,22,6.0,7.0,41,0.00,,,0.00,TxWx,2013-11-16 10:25:00,
2013-11-16 05:27:00,38.0,23.0,30.20,South,180,2.0,2.0,57,0.00,,,0.00,TxWx,2013-11-16 10:27:00,
2013-11-16 05:28:00,55.0,30.0,30.21,North,0,4.0,5.0,41,0.00,,,0.00,TxWx,2013-11-16 10:28:00,
2013-11-16 05:29:00,55.0,30.0,30.21,WNW,292,4.0,4.0,41,0.00,,,0.00,TxWx,2013-11-16 10:29:00,
2013-11-16 05:30:00,55.0,30.0,30.21,WNW,292,4.0,4.0,41,0.00,,,0.00,TxWx,2013-11-16 10:30:00,
2013-11-16 05:32:00,38.0,23.0,30.20,SW,225,1.0,1.0,57,0.00,,,0.00,TxWx,2013-11-16 10:32:00,
2013-11-16 05:37:00,37.0,22.0,30.20,WNW,292,2.0,3.0,57,0.00,,,0.00,TxWx,2013-11-16 10:37:00,
2013-11-16 05:42:00,38.0,23.0,30.20,North,0,1.0,1.0,58,0.00,,,0.00,TxWx,2013-11-16 10:42:00,
2013-11-16 05:47:00,38.0,24.0,30.20,NNW,337,0.0,0.0,59,0.00,,,0.00,TxWx,2013-11-16 10:47:00,
2013-11-16 05:52:00,37.0,23.0,30.21,South,180,2.0,2.0,60,0.00,,,0.00,TxWx,2013-11-16 10:52:00,
2013-11-16 05:57:00,37.0,24.0,30.21,SSE,157,1.0,1.0,61,0.00,,,0.00,TxWx,2013-11-16 10:57:00,
2013-11-16 06:02:00,37.0,24.0,30.21,SW,225,1.0,1.0,61,0.00,,,0.00,TxWx,2013-11-16 11:02:00,
2013-11-16 06:07:00,37.0,24.0,30.21,ENE,67,2.0,2.0,61,0.00,,,0.00,TxWx,2013-11-16 11:07:00,
2013-11-16 06:13:00,37.0,24.0,30.21,ENE,67,0.0,1.0,62,0.00,,,0.00,TxWx,2013-11-16 11:13:00,
2013-11-16 06:18:00,37.0,24.0,30.21,SW,225,3.0,4.0,62,0.00,,,0.00,TxWx,2013-11-16 11:18:00,
2013-11-16 06:23:00,37.0,25.0,30.21,ENE,67,1.0,2.0,63,0.00,,,0.00,TxWx,2013-11-16 11:23:00,
2013-11-16 06:28:00,37.0,25.0,30.22,North,0,3.0,3.0,64,0.00,,,0.00,TxWx,2013-11-16 11:28:00,
2013-11-16 06:33:00,37.0,25.0,30.22,NNE,22,3.0,3.0,64,0.00,,,0.00,TxWx,2013-11-16 11:33:00,
2013-11-16 06:38:00,37.0,25.0,30.23,North,0,3.0,3.0,64,0.00,,,0.00,TxWx,2013-11-16 11:38:00,
2013-11-16 06:43:00,37.0,25.0,30.22,SSW,202,1.0,1.0,65,0.00,,,0.00,TxWx,2013-11-16 11:43:00,
2013-11-16 06:48:00,37.0,25.0,30.22,WSW,247,3.0,3.0,65,0.00,,,0.00,TxWx,2013-11-16 11:48:00,
2013-11-16 06:54:00,37.0,26.0,30.22,NE,45,1.0,3.0,66,0.00,,,0.00,TxWx,2013-11-16 11:54:00,
2013-11-16 06:59:00,36.0,25.0,30.23,NNE,22,5.0,5.0,67,0.00,,,0.00,TxWx,2013-11-16 11:59:00,
2013-11-16 07:04:00,36.0,25.0,30.23,NNE,22,2.0,3.0,68,0.00,,,0.00,TxWx,2013-11-16 12:04:00,
2013-11-16 07:09:00,35.0,25.0,30.24,SSE,157,3.0,4.0,69,0.00,,,0.00,TxWx,2013-11-16 12:09:00,
2013-11-16 07:14:00,36.0,27.0,30.24,NW,315,0.0,1.0,72,0.00,,,0.00,TxWx,2013-11-16 12:14:00,
2013-11-16 07:19:00,36.0,27.0,30.24,WSW,247,1.0,1.0,72,0.00,,,0.00,TxWx,2013-11-16 12:19:00,
2013-11-16 07:24:00,36.0,27.0,30.24,South,180,2.0,3.0,73,0.00,,,0.00,TxWx,2013-11-16 12:24:00,
2013-11-16 07:30:00,36.0,27.0,30.24,SSW,202,2.0,3.0,73,0.00,,,0.00,TxWx,2013-11-16 12:30:00,
2013-11-16 07:35:00,36.0,27.0,30.25,North,0,2.0,2.0,74,0.00,,,0.00,TxWx,2013-11-16 12:35:00,
2013-11-16 07:40:00,36.0,28.0,30.24,WNW,292,2.0,2.0,75,0.00,,,0.00,TxWx,2013-11-16 12:40:00,
2013-11-16 07:45:00,37.0,29.0,30.24,WNW,292,2.0,2.0,75,0.00,,,0.00,TxWx,2013-11-16 12:45:00,
2013-11-16 07:50:00,37.0,29.0,30.25,WNW,292,1.0,2.0,75,0.00,,,0.00,TxWx,2013-11-16 12:50:00,
2013-11-16 07:55:00,38.0,30.0,30.25,NNW,337,1.0,1.0,76,0.00,,,0.00,TxWx,2013-11-16 12:55:00,
2013-11-16 07:56:00,46.0,26.0,30.21,NE,45,0.0,1.0,48,0.00,,,0.00,TxWx,2013-11-16 12:56:00,
2013-11-16 07:58:00,46.0,27.0,30.21,NE,45,0.0,0.0,49,0.00,,,0.00,TxWx,2013-11-16 12:58:00,
2013-11-16 07:59:00,46.0,27.0,30.21,NE,45,0.0,0.0,49,0.00,,,0.00,TxWx,2013-11-16 12:59:00,
2013-11-16 08:00:00,38.0,30.0,30.25,NW,315,1.0,2.0,76,0.00,,,0.00,TxWx,2013-11-16 13:00:00,
2013-11-16 08:01:00,45.0,26.0,30.21,NE,45,0.0,0.0,49,0.00,,,0.00,TxWx,2013-11-16 13:01:00,
2013-11-16 08:03:00,45.0,26.0,30.21,NE,45,0.0,0.0,49,0.00,,,0.00,TxWx,2013-11-16 13:03:00,
2013-11-16 08:04:00,45.0,26.0,30.21,NE,45,0.0,0.0,49,0.00,,,0.00,TxWx,2013-11-16 13:04:00,
2013-11-16 08:05:00,39.0,31.0,30.25,NE,45,1.0,1.0,76,0.00,,,0.00,TxWx,2013-11-16 13:05:00,
2013-11-16 08:08:00,45.0,26.0,30.21,NE,45,0.0,0.0,50,0.00,,,0.00,TxWx,2013-11-16 13:08:00,
2013-11-16 08:10:00,45.0,26.0,30.21,NE,45,0.0,0.0,50,0.00,,,0.00,TxWx,2013-11-16 13:10:00,
2013-11-16 08:11:00,39.0,31.0,30.25,NNE,22,1.0,3.0,76,0.00,,,0.00,TxWx,2013-11-16 13:11:00,
2013-11-16 08:13:00,44.0,26.0,30.21,NE,45,1.0,1.0,51,0.00,,,0.00,TxWx,2013-11-16 13:13:00,
2013-11-16 08:14:00,44.0,26.0,30.21,NE,45,0.0,1.0,51,0.00,,,0.00,TxWx,2013-11-16 13:14:00,
2013-11-16 08:15:00,44.0,26.0,30.21,NE,45,1.0,1.0,51,0.00,,,0.00,TxWx,2013-11-16 13:15:00,
2013-11-16 08:16:00,39.0,31.0,30.25,NNW,337,3.0,3.0,76,0.00,,,0.00,TxWx,2013-11-16 13:16:00,
2013-11-16 08:21:00,40.0,33.0,30.25,NNW,337,2.0,3.0,76,0.00,,,0.00,TxWx,2013-11-16 13:21:00,
2013-11-16 08:26:00,40.0,33.0,30.25,North,0,4.0,5.0,75,0.00,,,0.00,TxWx,2013-11-16 13:26:00,
2013-11-16 08:31:00,40.0,32.0,30.25,North,0,3.0,3.0,74,0.00,,,0.00,TxWx,2013-11-16 13:31:00,
2013-11-16 08:36:00,41.0,33.0,30.25,North,0,4.0,5.0,73,0.00,,,0.00,TxWx,2013-11-16 13:36:00,
2013-11-16 08:41:00,41.0,33.0,30.25,NW,315,3.0,3.0,72,0.00,,,0.00,TxWx,2013-11-16 13:41:00,
2013-11-16 08:46:00,41.0,32.0,30.25,NW,315,3.0,6.0,71,0.00,,,0.00,TxWx,2013-11-16 13:46:00,
2013-11-16 08:51:00,42.0,33.0,30.25,NNW,337,6.0,6.0,70,0.00,,,0.00,TxWx,2013-11-16 13:51:00,
2013-11-16 08:57:00,42.0,33.0,30.26,WNW,292,4.0,5.0,70,0.00,,,0.00,TxWx,2013-11-16 13:57:00,
2013-11-16 09:02:00,42.0,32.0,30.25,North,0,4.0,4.0,69,0.00,,,0.00,TxWx,2013-11-16 14:02:00,
2013-11-16 09:07:00,43.0,33.0,30.26,NNW,337,3.0,3.0,68,0.00,,,0.00,TxWx,2013-11-16 14:07:00,
2013-11-16 09:12:00,43.0,33.0,30.26,NNW,337,4.0,4.0,67,0.00,,,0.00,TxWx,2013-11-16 14:12:00,
2013-11-16 09:17:00,43.0,33.0,30.26,NNW,337,6.0,6.0,67,0.00,,,0.00,TxWx,2013-11-16 14:17:00,
2013-11-16 09:22:00,44.0,33.0,30.27,NNE,22,5.0,5.0,66,0.00,,,0.00,TxWx,2013-11-16 14:22:00,
2013-11-16 09:27:00,44.0,33.0,30.27,ENE,67,5.0,6.0,66,0.00,,,0.00,TxWx,2013-11-16 14:27:00,
2013-11-16 09:33:00,45.0,34.0,30.27,North,0,6.0,6.0,65,0.00,,,0.00,TxWx,2013-11-16 14:33:00,
2013-11-16 09:38:00,45.0,34.0,30.27,NNW,337,4.0,4.0,65,0.00,,,0.00,TxWx,2013-11-16 14:38:00,
2013-11-16 09:43:00,45.0,34.0,30.27,WNW,292,3.0,4.0,64,0.00,,,0.00,TxWx,2013-11-16 14:43:00,
2013-11-16 09:48:00,46.0,34.0,30.27,NW,315,4.0,5.0,63,0.00,,,0.00,TxWx,2013-11-16 14:48:00,
2013-11-16 09:53:00,46.0,34.0,30.27,NNW,337,5.0,5.0,63,0.00,,,0.00,TxWx,2013-11-16 14:53:00,
2013-11-16 09:58:00,46.0,33.0,30.27,NNE,22,3.0,4.0,62,0.00,,,0.00,TxWx,2013-11-16 14:58:00,
2013-11-16 10:03:00,46.0,33.0,30.27,NNW,337,5.0,5.0,61,0.00,,,0.00,TxWx,2013-11-16 15:03:00,
2013-11-16 10:08:00,46.0,33.0,30.27,North,0,5.0,5.0,61,0.00,,,0.00,TxWx,2013-11-16 15:08:00,
2013-11-16 10:13:00,47.0,34.0,30.27,NNW,337,3.0,4.0,60,0.00,,,0.00,TxWx,2013-11-16 15:13:00,
2013-11-16 10:19:00,47.0,34.0,30.27,North,0,6.0,6.0,60,0.00,,,0.00,TxWx,2013-11-16 15:19:00,
2013-11-16 10:24:00,47.0,33.0,30.27,WNW,292,2.0,3.0,59,0.00,,,0.00,TxWx,2013-11-16 15:24:00,
2013-11-16 10:29:00,48.0,34.0,30.27,NNW,337,4.0,5.0,59,0.00,,,0.00,TxWx,2013-11-16 15:29:00,
2013-11-16 10:34:00,48.0,34.0,30.27,NNE,22,7.0,7.0,59,0.00,,,0.00,TxWx,2013-11-16 15:34:00,
2013-11-16 10:39:00,48.0,34.0,30.27,North,0,6.0,7.0,58,0.00,,,0.00,TxWx,2013-11-16 15:39:00,
2013-11-16 10:44:00,48.0,34.0,30.27,NNE,22,3.0,5.0,58,0.00,,,0.00,TxWx,2013-11-16 15:44:00,
2013-11-16 10:49:00,49.0,35.0,30.27,North,0,3.0,4.0,58,0.00,,,0.00,TxWx,2013-11-16 15:49:00,
2013-11-16 10:54:00,49.0,34.0,30.27,WNW,292,0.0,1.0,57,0.00,,,0.00,TxWx,2013-11-16 15:54:00,
2013-11-16 10:59:00,49.0,34.0,30.27,NNE,22,5.0,6.0,57,0.00,,,0.00,TxWx,2013-11-16 15:59:00,
2013-11-16 11:05:00,49.0,34.0,30.27,NNW,337,6.0,6.0,56,0.00,,,0.00,TxWx,2013-11-16 16:05:00,
2013-11-16 11:10:00,49.0,34.0,30.26,NNE,22,3.0,5.0,56,0.00,,,0.00,TxWx,2013-11-16 16:10:00,
2013-11-16 11:15:00,49.0,34.0,30.26,NW,315,1.0,2.0,56,0.00,,,0.00,TxWx,2013-11-16 16:15:00,
2013-11-16 11:20:00,49.0,34.0,30.26,NE,45,5.0,6.0,56,0.00,,,0.00,TxWx,2013-11-16 16:20:00,
2013-11-16 11:25:00,49.0,34.0,30.26,NNW,337,5.0,5.0,57,0.00,,,0.00,TxWx,2013-11-16 16:25:00,
2013-11-16 11:30:00,50.0,35.0,30.25,East,90,4.0,6.0,56,0.00,,,0.00,TxWx,2013-11-16 16:30:00,
2013-11-16 11:35:00,50.0,34.0,30.25,West,270,6.0,6.0,54,0.00,,,0.00,TxWx,2013-11-16 16:35:00,
2013-11-16 11:40:00,50.0,34.0,30.25,NNW,337,6.0,7.0,53,0.00,,,0.00,TxWx,2013-11-16 16:40:00,
2013-11-16 11:46:00,50.0,33.0,30.24,NNE,22,2.0,3.0,52,0.00,,,0.00,TxWx,2013-11-16 16:46:00,
2013-11-16 11:51:00,50.0,33.0,30.24,North,0,5.0,5.0,52,0.00,,,0.00,TxWx,2013-11-16 16:51:00,
2013-11-16 11:56:00,51.0,33.0,30.24,NNW,337,5.0,5.0,51,0.00,,,0.00,TxWx,2013-11-16 16:56:00,
2013-11-16 12:01:00,51.0,33.0,30.23,North,0,5.0,5.0,50,0.00,,,0.00,TxWx,2013-11-16 17:01:00,
2013-11-16 12:06:00,51.0,33.0,30.23,WNW,292,3.0,3.0,50,0.00,,,0.00,TxWx,2013-11-16 17:06:00,
2013-11-16 12:10:00,42.0,28.0,30.23,NNW,337,2.0,3.0,61,0.00,,,0.00,TxWx,2013-11-16 17:10:00,
2013-11-16 12:11:00,52.0,34.0,30.23,NNW,337,4.0,5.0,50,0.00,,,0.00,TxWx,2013-11-16 17:11:00,
2013-11-16 12:13:00,42.0,28.0,30.23,NNE,22,1.0,2.0,61,0.00,,,0.00,TxWx,2013-11-16 17:13:00,
2013-11-16 12:16:00,52.0,34.0,30.23,SW,225,3.0,4.0,50,0.00,,,0.00,TxWx,2013-11-16 17:16:00,
2013-11-16 12:17:00,42.0,29.0,30.23,North,0,4.0,4.0,61,0.00,,,0.00,TxWx,2013-11-16 17:17:00,
2013-11-16 12:18:00,42.0,29.0,30.23,North,0,2.0,2.0,61,0.00,,,0.00,TxWx,2013-11-16 17:18:00,
2013-11-16 12:21:00,53.0,35.0,30.23,North,0,5.0,5.0,50,0.00,,,0.00,TxWx,2013-11-16 17:21:00,
2013-11-16 12:23:00,43.0,30.0,30.23,North,0,3.0,5.0,63,0.00,,,0.00,TxWx,2013-11-16 17:23:00,
2013-11-16 12:25:00,43.0,30.0,30.23,NNW,337,8.0,8.0,63,0.00,,,0.00,TxWx,2013-11-16 17:25:00,
2013-11-16 12:26:00,43.0,30.0,30.23,North,0,4.0,4.0,64,0.00,,,0.00,TxWx,2013-11-16 17:26:00,
2013-11-16 12:27:00,53.0,34.0,30.23,NNE,22,3.0,4.0,48,0.00,,,0.00,TxWx,2013-11-16 17:27:00,
2013-11-16 12:28:00,43.0,30.0,30.23,NNW,337,4.0,4.0,64,0.00,,,0.00,TxWx,2013-11-16 17:28:00,
2013-11-16 12:29:00,43.0,30.0,30.23,NNE,22,5.0,5.0,64,0.00,,,0.00,TxWx,2013-11-16 17:29:00,
2013-11-16 12:30:00,43.0,30.0,30.23,NNW,337,3.0,3.0,64,0.00,,,0.00,TxWx,2013-11-16 17:30:00,
2013-11-16 12:31:00,43.0,30.0,30.23,NE,45,3.0,3.0,64,0.00,,,0.00,TxWx,2013-11-16 17:31:00,
2013-11-16 12:32:00,53.0,34.0,30.23,NW,315,1.0,1.0,49,0.00,,,0.00,TxWx,2013-11-16 17:32:00,
2013-11-16 12:33:00,44.0,33.0,30.23,NNE,22,2.0,3.0,64,0.00,,,0.00,TxWx,2013-11-16 17:33:00,
2013-11-16 12:35:00,44.0,33.0,30.23,NNE,22,2.0,2.0,64,0.00,,,0.00,TxWx,2013-11-16 17:35:00,
2013-11-16 12:36:00,44.0,33.0,30.23,NNE,22,3.0,3.0,64,0.00,,,0.00,TxWx,2013-11-16 17:36:00,
2013-11-16 12:37:00,53.0,34.0,30.23,WNW,292,5.0,6.0,48,0.00,,,0.00,TxWx,2013-11-16 17:37:00,
2013-11-16 12:42:00,53.0,33.0,30.23,WSW,247,3.0,5.0,47,0.00,,,0.00,TxWx,2013-11-16 17:42:00,
2013-11-16 12:47:00,53.0,33.0,30.23,WNW,292,3.0,4.0,46,0.00,,,0.00,TxWx,2013-11-16 17:47:00,
2013-11-16 12:52:00,53.0,33.0,30.22,ENE,67,2.0,2.0,46,0.00,,,0.00,TxWx,2013-11-16 17:52:00,
2013-11-16 12:57:00,53.0,33.0,30.22,North,0,4.0,4.0,46,0.00,,,0.00,TxWx,2013-11-16 17:57:00,
2013-11-16 13:02:00,53.0,33.0,30.22,North,0,3.0,5.0,47,0.00,,,0.00,TxWx,2013-11-16 18:02:00,
2013-11-16 13:08:00,54.0,33.0,30.22,WSW,247,3.0,7.0,45,0.00,,,0.00,TxWx,2013-11-16 18:08:00,
2013-11-16 13:13:00,54.0,33.0,30.22,North,0,7.0,8.0,44,0.00,,,0.00,TxWx,2013-11-16 18:13:00,
2013-11-16 13:18:00,54.0,32.0,30.22,NNE,22,6.0,6.0,44,0.00,,,0.00,TxWx,2013-11-16 18:18:00,
2013-11-16 13:24:00,53.0,30.0,30.22,NNE,22,5.0,6.0,44,0.00,,,0.00,TxWx,2013-11-16 18:24:00,
2013-11-16 13:29:00,54.0,33.0,30.21,West,270,3.0,3.0,44,0.00,,,0.00,TxWx,2013-11-16 18:29:00,
2013-11-16 13:34:00,54.0,31.0,30.22,NW,315,3.0,4.0,43,0.00,,,0.00,TxWx,2013-11-16 18:34:00,
2013-11-16 13:39:00,54.0,31.0,30.22,NW,315,2.0,3.0,43,0.00,,,0.00,TxWx,2013-11-16 18:39:00,
2013-11-16 13:44:00,54.0,31.0,30.22,West,270,1.0,2.0,43,0.00,,,0.00,TxWx,2013-11-16 18:44:00,
2013-11-16 13:49:00,55.0,33.0,30.22,WNW,292,3.0,3.0,43,0.00,,,0.00,TxWx,2013-11-16 18:49:00,
2013-11-16 13:55:00,55.0,32.0,30.22,NNE,22,2.0,2.0,42,0.00,,,0.00,TxWx,2013-11-16 18:55:00,
2013-11-16 14:00:00,55.0,31.0,30.21,NNW,337,3.0,3.0,42,0.00,,,0.00,TxWx,2013-11-16 19:00:00,
2013-11-16 14:04:00,41.0,32.0,30.22,NW,315,2.0,2.0,71,0.00,,,0.00,TxWx,2013-11-16 19:04:00,
2013-11-16 14:05:00,55.0,31.0,30.21,NNW,337,3.0,3.0,41,0.00,,,0.00,TxWx,2013-11-16 19:05:00,
2013-11-16 14:07:00,41.0,32.0,30.22,WNW,292,1.0,2.0,72,0.00,,,0.00,TxWx,2013-11-16 19:07:00,
2013-11-16 14:08:00,41.0,32.0,30.22,NW,315,2.0,3.0,72,0.00,,,0.00,TxWx,2013-11-16 19:08:00,
2013-11-16 14:10:00,55.0,31.0,30.21,NW,315,5.0,5.0,41,0.00,,,0.00,TxWx,2013-11-16 19:10:00,
2013-11-16 14:11:00,42.0,34.0,30.22,NNW,337,2.0,3.0,72,0.00,,,0.00,TxWx,2013-11-16 19:11:00,
2013-11-16 14:13:00,42.0,34.0,30.22,North,0,3.0,3.0,72,0.00,,,0.00,TxWx,2013-11-16 19:13:00,
2013-11-16 14:14:00,42.0,34.0,30.22,North,0,2.0,3.0,73,0.00,,,0.00,TxWx,2013-11-16 19:14:00,
2013-11-16 14:15:00,55.0,31.0,30.21,WNW,292,4.0,5.0,42,0.00,,,0.00,TxWx,2013-11-16 19:15:00,
2013-11-16 14:16:00,42.0,34.0,30.22,NNW,337,4.0,4.0,73,0.00,,,0.00,TxWx,2013-11-16 19:16:00,
2013-11-16 14:19:00,42.0,34.0,30.22,NNW,337,3.0,3.0,73,0.00,,,0.00,TxWx,2013-11-16 19:19:00,
2013-11-16 14:20:00,55.0,31.0,30.21,WNW,292,3.0,3.0,41,0.00,,,0.00,TxWx,2013-11-16 19:20:00,
2013-11-16 14:21:00,42.0,34.0,30.22,NNW,337,3.0,3.0,73,0.00,,,0.00,TxWx,2013-11-16 19:21:00,
2013-11-16 14:23:00,42.0,34.0,30.22,NNW,337,3.0,3.0,74,0.00,,,0.00,TxWx,2013-11-16 19:23:00,
2013-11-16 14:24:00,42.0,34.0,30.22,North,0,3.0,5.0,74,0.00,,,0.00,TxWx,2013-11-16 19:24:00,
2013-11-16 14:25:00,55.0,30.0,30.21,NE,45,5.0,6.0,41,0.00,,,0.00,TxWx,2013-11-16 19:25:00,
2013-11-16 14:26:00,42.0,34.0,30.22,NNW,337,4.0,4.0,74,0.00,,,0.00,TxWx,2013-11-16 19:26:00,
2013-11-16 14:27:00,42.0,34.0,30.22,NNW,337,3.0,3.0,74,0.00,,,0.00,TxWx,2013-11-16 19:27:00,
2013-11-16 14:29:00,42.0,34.0,30.22,North,0,3.0,3.0,74,0.00,,,0.00,TxWx,2013-11-16 19:29:00,
2013-11-16 14:30:00,55.0,30.0,30.21,NW,315,4.0,4.0,41,0.00,,,0.00,TxWx,2013-11-16 19:30:00,
2013-11-16 14:31:00,42.0,34.0,30.21,North,0,3.0,4.0,74,0.00,,,0.00,TxWx,2013-11-16 19:31:00,
2013-11-16 14:32:00,42.0,34.0,30.21,NNW,337,3.0,4.0,75,0.00,,,0.00,TxWx,2013-11-16 19:32:00,
2013-11-16 14:34:00,42.0,34.0,30.21,North,0,3.0,4.0,75,0.00,,,0.00,TxWx,2013-11-16 19:34:00,
2013-11-16 14:36:00,55.0,30.0,30.21,NNW,337,5.0,6.0,40,0.00,,,0.00,TxWx,2013-11-16 19:36:00,
2013-11-16 14:37:00,42.0,34.0,30.21,North,0,3.0,3.0,75,0.00,,,0.00,TxWx,2013-11-16 19:37:00,
2013-11-16 14:41:00,54.0,29.0,30.21,WNW,292,6.0,6.0,41,0.00,,,0.00,TxWx,2013-11-16 19:41:00,
2013-11-16 14:42:00,42.0,35.0,30.22,North,0,2.0,3.0,75,0.00,,,0.00,TxWx,2013-11-16 19:42:00,
2013-11-16 14:44:00,42.0,35.0,30.22,NNE,22,3.0,3.0,75,0.00,,,0.00,TxWx,2013-11-16 19:44:00,
2013-11-16 14:45:00,42.0,35.0,30.21,NNW,337,1.0,2.0,75,0.00,,,0.00,TxWx,2013-11-16 19:45:00,
2013-11-16 14:46:00,54.0,29.0,30.21,NNW,337,2.0,3.0,41,0.00,,,0.00,TxWx,2013-11-16 19:46:00,
2013-11-16 14:51:00,55.0,30.0,30.21,North,0,5.0,5.0,40,0.00,,,0.00,TxWx,2013-11-16 19:51:00,
2013-11-16 14:56:00,55.0,29.0,30.21,North,0,6.0,8.0,39,0.00,,,0.00,TxWx,2013-11-16 19:56:00,
2013-11-16 15:00:00,42.0,35.0,30.21,NNW,337,3.0,3.0,76,0.00,,,0.00,TxWx,2013-11-16 20:00:00,
2013-11-16 15:01:00,55.0,29.0,30.21,NNE,22,5.0,5.0,39,0.00,,,0.00,TxWx,2013-11-16 20:01:00,
2013-11-16 15:02:00,42.0,35.0,30.21,WNW,292,3.0,3.0,76,0.00,,,0.00,TxWx,2013-11-16 20:02:00,
2013-11-16 15:03:00,42.0,35.0,30.21,WNW,292,3.0,3.0,76,0.00,,,0.00,TxWx,2013-11-16 20:03:00,
2013-11-16 15:04:00,42.0,35.0,30.21,NNE,22,2.0,3.0,76,0.00,,,0.00,TxWx,2013-11-16 20:04:00,
2013-11-16 15:05:00,42.0,35.0,30.21,North,0,5.0,5.0,76,0.00,,,0.00,TxWx,2013-11-16 20:05:00,
2013-11-16 15:06:00,55.0,30.0,30.21,NW,315,5.0,5.0,40,0.00,,,0.00,TxWx,2013-11-16 20:06:00,
2013-11-16 15:07:00,43.0,36.0,30.22,NNW,337,7.0,7.0,77,0.00,,,0.00,TxWx,2013-11-16 20:07:00,
2013-11-16 15:08:00,43.0,36.0,30.22,NNE,22,3.0,4.0,77,0.00,,,0.00,TxWx,2013-11-16 20:08:00,
2013-11-16 15:09:00,43.0,36.0,30.22,North,0,8.0,8.0,77,0.00,,,0.00,TxWx,2013-11-16 20:09:00,
2013-11-16 15:10:00,43.0,36.0,30.22,North,0,3.0,3.0,77,0.00,,,0.00,TxWx,2013-11-16 20:10:00,
2013-11-16 15:11:00,55.0,29.0,30.21,West,270,5.0,5.0,39,0.00,,,0.00,TxWx,2013-11-16 20:11:00,
2013-11-16 15:12:00,43.0,36.0,30.21,WNW,292,2.0,3.0,77,0.00,,,0.00,TxWx,2013-11-16 20:12:00,
2013-11-16 15:13:00,43.0,36.0,30.21,NW,315,3.0,5.0,77,0.00,,,0.00,TxWx,2013-11-16 20:13:00,
2013-11-16 15:14:00,43.0,36.0,30.21,North,0,3.0,3.0,77,0.00,,,0.00,TxWx,2013-11-16 20:14:00,
2013-11-16 15:15:00,43.0,36.0,30.21,NNW,337,3.0,3.0,77,0.00,,,0.00,TxWx,2013-11-16 20:15:00,
2013-11-16 15:16:00,43.0,36.0,30.21,NW,315,5.0,5.0,77,0.00,,,0.00,TxWx,2013-11-16 20:16:00,
2013-11-16 15:17:00,54.0,29.0,30.21,NW,315,3.0,3.0,39,0.00,,,0.00,TxWx,2013-11-16 20:17:00,
2013-11-16 15:18:00,43.0,36.0,30.21,NW,315,8.0,8.0,77,0.00,,,0.00,TxWx,2013-11-16 20:18:00,
2013-11-16 15:19:00,44.0,37.0,30.21,WNW,292,5.0,6.0,77,0.00,,,0.00,TxWx,2013-11-16 20:19:00,
2013-11-16 15:20:00,44.0,37.0,30.21,WNW,292,4.0,4.0,77,0.00,,,0.00,TxWx,2013-11-16 20:20:00,
2013-11-16 15:21:00,44.0,37.0,30.21,NW,315,5.0,5.0,77,0.00,,,0.00,TxWx,2013-11-16 20:21:00,
2013-11-16 15:22:00,54.0,29.0,30.21,NW,315,3.0,3.0,39,0.00,,,0.00,TxWx,2013-11-16 20:22:00,
2013-11-16 15:24:00,43.0,36.0,30.21,NW,315,3.0,5.0,77,0.00,,,0.00,TxWx,2013-11-16 20:24:00,
2013-11-16 15:26:00,43.0,36.0,30.21,NW,315,4.0,4.0,77,0.00,,,0.00,TxWx,2013-11-16 20:26:00,
2013-11-16 15:27:00,54.0,29.0,30.21,NNW,337,5.0,5.0,39,0.00,,,0.00,TxWx,2013-11-16 20:27:00,
2013-11-16 15:28:00,43.0,36.0,30.21,NW,315,3.0,4.0,77,0.00,,,0.00,TxWx,2013-11-16 20:28:00,
2013-11-16 15:29:00,43.0,36.0,30.21,WNW,292,5.0,5.0,77,0.00,,,0.00,TxWx,2013-11-16 20:29:00,
2013-11-16 15:32:00,54.0,29.0,30.21,NNW,337,2.0,2.0,39,0.00,,,0.00,TxWx,2013-11-16 20:32:00,
2013-11-16 15:33:00,43.0,36.0,30.21,NW,315,4.0,4.0,76,0.00,,,0.00,TxWx,2013-11-16 20:33:00,
2013-11-16 15:34:00,42.0,35.0,30.20,WNW,292,5.0,5.0,76,0.00,,,0.00,TxWx,2013-11-16 20:34:00,
2013-11-16 15:35:00,42.0,35.0,30.20,WNW,292,4.0,5.0,76,0.00,,,0.00,TxWx,2013-11-16 20:35:00,
2013-11-16 15:36:00,42.0,35.0,30.20,WNW,292,4.0,5.0,76,0.00,,,0.00,TxWx,2013-11-16 20:36:00,
2013-11-16 15:37:00,54.0,29.0,30.21,North,0,2.0,2.0,39,0.00,,,0.00,TxWx,2013-11-16 20:37:00,
2013-11-16 15:42:00,54.0,29.0,30.21,North,0,4.0,4.0,39,0.00,,,0.00,TxWx,2013-11-16 20:42:00,
2013-11-16 15:47:00,54.0,29.0,30.21,North,0,2.0,3.0,39,0.00,,,0.00,TxWx,2013-11-16 20:47:00,
2013-11-16 15:53:00,54.0,29.0,30.21,North,0,2.0,3.0,39,0.00,,,0.00,TxWx,2013-11-16 20:53:00,
2013-11-16 15:58:00,54.0,29.0,30.21,NNW,337,2.0,3.0,40,0.00,,,0.00,TxWx,2013-11-16 20:58:00,
2013-11-16 16:03:00,53.0,28.0,30.21,NW,315,1.0,2.0,40,0.00,,,0.00,TxWx,2013-11-16 21:03:00,
2013-11-16 16:08:00,53.0,29.0,30.22,NW,315,1.0,2.0,41,0.00,,,0.00,TxWx,2013-11-16 21:08:00,
2013-11-16 16:13:00,52.0,28.0,30.21,WSW,247,0.0,1.0,42,0.00,,,0.00,TxWx,2013-11-16 21:13:00,
2013-11-16 16:18:00,52.0,29.0,30.21,WNW,292,1.0,1.0,42,0.00,,,0.00,TxWx,2013-11-16 21:18:00,
2013-11-16 16:23:00,51.0,28.0,30.21,NNW,337,1.0,1.0,43,0.00,,,0.00,TxWx,2013-11-16 21:23:00,
2013-11-16 16:29:00,50.0,28.0,30.21,NNE,22,0.0,1.0,44,0.00,,,0.00,TxWx,2013-11-16 21:29:00,
2013-11-16 16:34:00,49.0,27.0,30.21,WSW,247,0.0,0.0,45,0.00,,,0.00,TxWx,2013-11-16 21:34:00,
2013-11-16 16:39:00,48.0,27.0,30.21,WSW,247,1.0,1.0,46,0.00,,,0.00,TxWx,2013-11-16 21:39:00,
2013-11-16 16:44:00,48.0,27.0,30.21,NW,315,0.0,1.0,47,0.00,,,0.00,TxWx,2013-11-16 21:44:00,
2013-11-16 16:49:00,47.0,27.0,30.21,NE,45,0.0,0.0,47,0.00,,,0.00,TxWx,2013-11-16 21:49:00,
2013-11-16 16:54:00,46.0,26.0,30.21,NE,45,1.0,1.0,48,0.00,,,0.00,TxWx,2013-11-16 21:54:00,
2013-11-16 16:59:00,46.0,27.0,30.21,NE,45,0.0,0.0,49,0.00,,,0.00,TxWx,2013-11-16 21:59:00,
2013-11-16 17:04:00,45.0,26.0,30.21,NE,45,0.0,0.0,49,0.00,,,0.00,TxWx,2013-11-16 22:04:00,
2013-11-16 17:10:00,45.0,26.0,30.21,NE,45,0.0,0.0,50,0.00,,,0.00,TxWx,2013-11-16 22:10:00,
2013-11-16 17:15:00,44.0,26.0,30.21,NE,45,0.0,1.0,51,0.00,,,0.00,TxWx,2013-11-16 22:15:00,
2013-11-16 17:20:00,44.0,26.0,30.21,NE,45,0.0,0.0,51,0.00,,,0.00,TxWx,2013-11-16 22:20:00,
2013-11-16 17:25:00,44.0,26.0,30.21,SSW,202,1.0,1.0,52,0.00,,,0.00,TxWx,2013-11-16 22:25:00,
2013-11-16 17:30:00,44.0,26.0,30.21,SSW,202,1.0,1.0,52,0.00,,,0.00,TxWx,2013-11-16 22:30:00,
2013-11-16 17:35:00,44.0,27.0,30.21,WSW,247,1.0,1.0,53,0.00,,,0.00,TxWx,2013-11-16 22:35:00,
2013-11-16 17:41:00,44.0,27.0,30.21,West,270,1.0,1.0,53,0.00,,,0.00,TxWx,2013-11-16 22:41:00,
2013-11-16 17:46:00,44.0,27.0,30.21,West,270,0.0,1.0,53,0.00,,,0.00,TxWx,2013-11-16 22:46:00,
2013-11-16 17:51:00,43.0,26.0,30.21,North,0,0.0,1.0,53,0.00,,,0.00,TxWx,2013-11-16 22:51:00,
2013-11-16 17:56:00,43.0,26.0,30.21,North,0,0.0,0.0,53,0.00,,,0.00,TxWx,2013-11-16 22:56:00,
2013-11-16 18:01:00,42.0,25.0,30.21,North,0,0.0,0.0,54,0.00,,,0.00,TxWx,2013-11-16 23:01:00,
2013-11-16 18:06:00,42.0,26.0,30.21,NNE,22,1.0,1.0,54,0.00,,,0.00,TxWx,2013-11-16 23:06:00,
2013-11-16 18:11:00,43.0,27.0,30.22,NW,315,2.0,3.0,55,0.00,,,0.00,TxWx,2013-11-16 23:11:00,
2013-11-16 18:16:00,43.0,26.0,30.22,NW,315,1.0,2.0,54,0.00,,,0.00,TxWx,2013-11-16 23:16:00,
2013-11-16 18:21:00,44.0,27.0,30.22,NW,315,3.0,3.0,53,0.00,,,0.00,TxWx,2013-11-16 23:21:00,
2013-11-16 18:26:00,44.0,27.0,30.22,North,0,0.0,1.0,53,0.00,,,0.00,TxWx,2013-11-16 23:26:00,
2013-11-16 18:32:00,44.0,26.0,30.22,NE,45,1.0,1.0,52,0.00,,,0.00,TxWx,2013-11-16 23:32:00,
2013-11-16 18:37:00,43.0,26.0,30.22,NNE,22,1.0,1.0,52,0.00,,,0.00,TxWx,2013-11-16 23:37:00,
2013-11-16 18:42:00,43.0,26.0,30.22,North,0,0.0,1.0,52,0.00,,,0.00,TxWx,2013-11-16 23:42:00,
2013-11-16 18:47:00,44.0,26.0,30.22,NNW,337,0.0,1.0,52,0.00,,,0.00,TxWx,2013-11-16 23:47:00,
2013-11-16 18:52:00,44.0,26.0,30.23,ENE,67,1.0,1.0,52,0.00,,,0.00,TxWx,2013-11-16 23:52:00,
2013-11-16 18:57:00,44.0,26.0,30.23,North,0,1.0,1.0,52,0.00,,,0.00,TxWx,2013-11-16 23:57:00,
2013-11-16 19:02:00,43.0,25.0,30.23,NNE,22,2.0,3.0,52,0.00,,,0.00,TxWx,2013-11-17 00:02:00,
2013-11-16 19:03:00,44.0,40.0,30.19,NNW,337,6.0,6.0,85,0.00,,,0.00,TxWx,2013-11-17 00:03:00,
2013-11-16 19:05:00,44.0,40.0,30.19,North,0,8.0,8.0,85,0.00,,,0.00,TxWx,2013-11-17 00:05:00,
2013-11-16 19:07:00,44.0,26.0,30.23,North,0,3.0,3.0,52,0.00,,,0.00,TxWx,2013-11-17 00:07:00,
2013-11-16 19:08:00,44.0,40.0,30.19,NNW,337,11.0,11.0,86,0.00,,,0.00,TxWx,2013-11-17 00:08:00,
2013-11-16 19:10:00,44.0,40.0,30.19,NNW,337,7.0,7.0,86,0.00,,,0.00,TxWx,2013-11-17 00:10:00,
2013-11-16 19:13:00,45.0,27.0,30.23,NNW,337,3.0,4.0,51,0.00,,,0.00,TxWx,2013-11-17 00:13:00,
2013-11-16 19:15:00,44.0,40.0,30.19,NNW,337,5.0,6.0,86,0.00,,,0.00,TxWx,2013-11-17 00:15:00,
2013-11-16 19:16:00,44.0,40.0,30.19,North,0,8.0,8.0,86,0.00,,,0.00,TxWx,2013-11-17 00:16:00,
2013-11-16 19:17:00,44.0,40.0,30.19,North,0,5.0,5.0,86,0.00,,,0.00,TxWx,2013-11-17 00:17:00,
2013-11-16 19:18:00,45.0,26.0,30.23,NNW,337,3.0,4.0,50,0.00,,,0.00,TxWx,2013-11-17 00:18:00,
2013-11-16 19:20:00,44.0,40.0,30.19,North,0,7.0,7.0,86,0.00,,,0.00,TxWx,2013-11-17 00:20:00,
2013-11-16 19:23:00,45.0,26.0,30.23,North,0,3.0,3.0,50,0.00,,,0.00,TxWx,2013-11-17 00:23:00,
2013-11-16 19:24:00,44.0,40.0,30.19,NNW,337,7.0,7.0,86,0.00,,,0.00,TxWx,2013-11-17 00:24:00,
2013-11-16 19:25:00,44.0,40.0,30.19,North,0,8.0,8.0,86,0.00,,,0.00,TxWx,2013-11-17 00:25:00,
2013-11-16 19:28:00,45.0,26.0,30.23,North,0,3.0,4.0,50,0.00,,,0.00,TxWx,2013-11-17 00:28:00,
2013-11-16 19:29:00,44.0,40.0,30.19,NW,315,4.0,5.0,86,0.00,,,0.00,TxWx,2013-11-17 00:29:00,
2013-11-16 19:30:00,44.0,40.0,30.18,NNE,22,6.0,6.0,86,0.00,,,0.00,TxWx,2013-11-17 00:30:00,
2013-11-16 19:33:00,45.0,26.0,30.23,NNW,337,3.0,4.0,50,0.00,,,0.00,TxWx,2013-11-17 00:33:00,
2013-11-16 19:38:00,45.0,26.0,30.23,North,0,3.0,3.0,50,0.00,,,0.00,TxWx,2013-11-17 00:38:00,
2013-11-16 19:43:00,45.0,26.0,30.23,NNW,337,3.0,3.0,50,0.00,,,0.00,TxWx,2013-11-17 00:43:00,
2013-11-16 19:49:00,44.0,26.0,30.23,NNW,337,3.0,3.0,51,0.00,,,0.00,TxWx,2013-11-17 00:49:00,
2013-11-16 19:54:00,44.0,26.0,30.23,NNW,337,3.0,3.0,51,0.00,,,0.00,TxWx,2013-11-17 00:54:00,
2013-11-16 19:59:00,44.0,26.0,30.23,NNW,337,2.0,3.0,51,0.00,,,0.00,TxWx,2013-11-17 00:59:00,
2013-11-16 20:04:00,44.0,26.0,30.23,North,0,2.0,2.0,52,0.00,,,0.00,TxWx,2013-11-17 01:04:00,
2013-11-16 20:09:00,43.0,26.0,30.23,North,0,3.0,4.0,52,0.00,,,0.00,TxWx,2013-11-17 01:09:00,
2013-11-16 20:14:00,44.0,27.0,30.23,NNW,337,3.0,3.0,53,0.00,,,0.00,TxWx,2013-11-17 01:14:00,
2013-11-16 20:19:00,44.0,27.0,30.23,NNE,22,3.0,3.0,53,0.00,,,0.00,TxWx,2013-11-17 01:19:00,
2013-11-16 20:24:00,43.0,26.0,30.23,NNE,22,3.0,3.0,53,0.00,,,0.00,TxWx,2013-11-17 01:24:00,
2013-11-16 20:29:00,43.0,26.0,30.23,North,0,2.0,3.0,54,0.00,,,0.00,TxWx,2013-11-17 01:29:00,
2013-11-16 20:35:00,43.0,27.0,30.22,NNE,22,2.0,3.0,55,0.00,,,0.00,TxWx,2013-11-17 01:35:00,
2013-11-16 20:40:00,42.0,26.0,30.22,North,0,2.0,3.0,55,0.00,,,0.00,TxWx,2013-11-17 01:40:00,
2013-11-16 20:45:00,42.0,26.0,30.22,NNW,337,1.0,1.0,56,0.00,,,0.00,TxWx,2013-11-17 01:45:00,
2013-11-16 20:50:00,42.0,27.0,30.22,North,0,1.0,1.0,57,0.00,,,0.00,TxWx,2013-11-17 01:50:00,
2013-11-16 20:55:00,42.0,27.0,30.22,North,0,1.0,2.0,59,0.00,,,0.00,TxWx,2013-11-17 01:55:00,
2013-11-16 21:00:00,42.0,28.0,30.23,ENE,67,1.0,1.0,60,0.00,,,0.00,TxWx,2013-11-17 02:00:00,
2013-11-16 21:05:00,42.0,28.0,30.23,North,0,1.0,1.0,60,0.00,,,0.00,TxWx,2013-11-17 02:05:00,
2013-11-16 21:11:00,42.0,28.0,30.23,NNE,22,1.0,2.0,61,0.00,,,0.00,TxWx,2013-11-17 02:11:00,
2013-11-16 21:16:00,42.0,29.0,30.23,NNE,22,2.0,4.0,61,0.00,,,0.00,TxWx,2013-11-17 02:16:00,
2013-11-16 21:21:00,42.0,29.0,30.23,North,0,4.0,5.0,62,0.00,,,0.00,TxWx,2013-11-17 02:21:00,
2013-11-16 21:26:00,43.0,30.0,30.23,NNE,22,4.0,5.0,64,0.00,,,0.00,TxWx,2013-11-17 02:26:00,
2013-11-16 21:31:00,43.0,30.0,30.23,North,0,3.0,3.0,64,0.00,,,0.00,TxWx,2013-11-17 02:31:00,
2013-11-16 21:37:00,44.0,33.0,30.23,NNE,22,4.0,4.0,64,0.00,,,0.00,TxWx,2013-11-17 02:37:00,
2013-11-16 21:42:00,44.0,33.0,30.22,WNW,292,5.0,5.0,65,0.00,,,0.00,TxWx,2013-11-17 02:42:00,
2013-11-16 21:47:00,44.0,33.0,30.22,North,0,3.0,4.0,65,0.00,,,0.00,TxWx,2013-11-17 02:47:00,
2013-11-16 21:52:00,44.0,33.0,30.23,North,0,2.0,2.0,66,0.00,,,0.00,TxWx,2013-11-17 02:52:00,
2013-11-16 21:57:00,44.0,33.0,30.22,NNW,337,4.0,4.0,66,0.00,,,0.00,TxWx,2013-11-17 02:57:00,
2013-11-16 22:02:00,44.0,34.0,30.22,NNE,22,4.0,5.0,67,0.00,,,0.00,TxWx,2013-11-17 03:02:00,
2013-11-16 22:07:00,44.0,34.0,30.23,NNW,337,2.0,2.0,68,0.00,,,0.00,TxWx,2013-11-17 03:07:00,
2013-11-16 22:13:00,44.0,34.0,30.23,NNE,22,3.0,5.0,68,0.00,,,0.00,TxWx,2013-11-17 03:13:00,
2013-11-16 22:18:00,44.0,34.0,30.23,NNE,22,5.0,5.0,69,0.00,,,0.00,TxWx,2013-11-17 03:18:00,
2013-11-16 22:23:00,44.0,34.0,30.22,North,0,4.0,4.0,69,0.00,,,0.00,TxWx,2013-11-17 03:23:00,
2013-11-16 22:28:00,44.0,35.0,30.22,North,0,2.0,3.0,70,0.00,,,0.00,TxWx,2013-11-17 03:28:00,
2013-11-16 22:33:00,44.0,35.0,30.23,WNW,292,3.0,3.0,70,0.00,,,0.00,TxWx,2013-11-17 03:33:00,
2013-11-16 22:38:00,43.0,34.0,30.22,WNW,292,3.0,3.0,70,0.00,,,0.00,TxWx,2013-11-17 03:38:00,
2013-11-16 22:43:00,43.0,34.0,30.23,North,0,1.0,2.0,70,0.00,,,0.00,TxWx,2013-11-17 03:43:00,
2013-11-16 22:48:00,42.0,33.0,30.22,West,270,2.0,2.0,70,0.00,,,0.00,TxWx,2013-11-17 03:48:00,
2013-11-16 22:54:00,42.0,33.0,30.22,NW,315,1.0,1.0,71,0.00,,,0.00,TxWx,2013-11-17 03:54:00,
2013-11-16 22:59:00,42.0,33.0,30.22,NW,315,1.0,1.0,71,0.00,,,0.00,TxWx,2013-11-17 03:59:00,
2013-11-16 23:04:00,42.0,33.0,30.22,NW,315,1.0,2.0,71,0.00,,,0.00,TxWx,2013-11-17 04:04:00,
2013-11-16 23:09:00,41.0,32.0,30.22,NNW,337,2.0,3.0,72,0.00,,,0.00,TxWx,2013-11-17 04:09:00,
2013-11-16 23:15:00,42.0,34.0,30.22,NW,315,5.0,5.0,73,0.00,,,0.00,TxWx,2013-11-17 04:15:00,
2013-11-16 23:20:00,42.0,34.0,30.22,NNW,337,3.0,3.0,73,0.00,,,0.00,TxWx,2013-11-17 04:20:00,
2013-11-16 23:25:00,42.0,34.0,30.22,NW,315,2.0,3.0,74,0.00,,,0.00,TxWx,2013-11-17 04:25:00,
2013-11-16 23:30:00,42.0,34.0,30.22,North,0,4.0,5.0,74,0.00,,,0.00,TxWx,2013-11-17 04:30:00,
2013-11-16 23:35:00,42.0,34.0,30.21,NE,45,2.0,3.0,75,0.00,,,0.00,TxWx,2013-11-17 04:35:00,
2013-11-16 23:40:00,42.0,35.0,30.22,NNW,337,3.0,3.0,75,0.00,,,0.00,TxWx,2013-11-17 04:40:00,
2013-11-16 23:45:00,42.0,35.0,30.22,NNW,337,2.0,3.0,75,0.00,,,0.00,TxWx,2013-11-17 04:45:00,
2013-11-16 23:51:00,42.0,35.0,30.21,NW,315,1.0,2.0,76,0.00,,,0.00,TxWx,2013-11-17 04:51:00,
2013-11-16 23:56:00,42.0,35.0,30.21,NW,315,2.0,3.0,76,0.00,,,0.00,TxWx,2013-11-17 04:56:00,